When you browse on this site, cookies collect data to enhance your experience and personalize the content and advertising you see.
Visit our Privacy Policy to learn more. By continuing to use the site, you agree to this use of cookies and data.
  • In Schweiz
  • Länderverzeichnis
  • Für 7 Tage
  • Wassertemperatur
  • Satellitenkarten
  • Wetterkarte
  • Widgets
  • user-avatar
    Anmelden

    Stündliche Wetter Batken

    Heute, 25 März, Montag

    Zeit Temperatur Niederschläge Wind Luftdruck Luftfeuchtigkeit
    00:00 +9°C° 0 mm 2 m/S 673 mmHg 46%
    01:00 +9°C° 0 mm 2 m/S 674 mmHg 46%
    02:00 +8°C° 0 mm 2 m/S 674 mmHg 46%
    03:00 +8°C° 0 mm 2 m/S 674 mmHg 46%
    04:00 +8°C° 0 mm 2 m/S 674 mmHg 45%
    05:00 +7°C° 0 mm 2 m/S 673 mmHg 45%
    06:00 +8°C° 0 mm 2 m/S 673 mmHg 41%
    07:00 +9°C° 0 mm 2 m/S 674 mmHg 38%
    08:00 +10°C° 0 mm 2 m/S 674 mmHg 35%
    09:00 +13°C° 0 mm 2 m/S 674 mmHg 32%
    10:00 +14°C° 0 mm 2 m/S 673 mmHg 29%
    11:00 +15°C° 0 mm 2 m/S 673 mmHg 26%
    12:00 +16°C° 0 mm 2 m/S 673 mmHg 25%
    13:00 +17°C° 0 mm 3 m/S 673 mmHg 24%
    14:00 +18°C° 0 mm 3 m/S 673 mmHg 23%
    15:00 +18°C° 0 mm 3 m/S 674 mmHg 22%
    16:00 +18°C° 0 mm 3 m/S 674 mmHg 22%
    17:00 +18°C° 0 mm 3 m/S 674 mmHg 22%
    18:00 +17°C° 0 mm 3 m/S 674 mmHg 24%
    19:00 +16°C° 0 mm 3 m/S 674 mmHg 27%
    20:00 +13°C° 0 mm 3 m/S 675 mmHg 30%
    21:00 +13°C° 0 mm 3 m/S 675 mmHg 30%
    22:00 +12°C° 0 mm 3 m/S 675 mmHg 30%
    23:00 +12°C° 0 mm 3 m/S 675 mmHg 30%

    Morgen, 26 März, Dienstag

    Zeit Temperatur Niederschläge Wind Luftdruck Luftfeuchtigkeit
    00:00 +11°C° 0 mm 3 m/S 675 mmHg 30%
    01:00 +11°C° 0 mm 3 m/S 674 mmHg 31%
    02:00 +10°C° 0 mm 2 m/S 674 mmHg 32%
    03:00 +10°C° 0 mm 2 m/S 674 mmHg 33%
    04:00 +9°C° 0 mm 2 m/S 674 mmHg 33%
    05:00 +9°C° 0 mm 2 m/S 673 mmHg 34%
    06:00 +10°C° 0 mm 2 m/S 673 mmHg 32%
    07:00 +12°C° 0 mm 2 m/S 673 mmHg 30%
    08:00 +13°C° 0 mm 2 m/S 673 mmHg 29%
    09:00 +14°C° 0 mm 2 m/S 673 mmHg 26%
    10:00 +16°C° 0 mm 3 m/S 673 mmHg 23%
    11:00 +17°C° 0 mm 4 m/S 672 mmHg 21%
    12:00 +18°C° 0 mm 4 m/S 672 mmHg 20%
    13:00 +19°C° 0 mm 4 m/S 672 mmHg 19%
    14:00 +19°C° 0 mm 4 m/S 672 mmHg 18%
    15:00 +19°C° 0 mm 3 m/S 672 mmHg 18%
    16:00 +19°C° 0 mm 3 m/S 672 mmHg 19%
    17:00 +19°C° 0 mm 2 m/S 672 mmHg 19%
    18:00 +18°C° 0 mm 2 m/S 672 mmHg 23%
    19:00 +17°C° 0 mm 2 m/S 672 mmHg 27%
    20:00 +16°C° 0 mm 1 m/S 672 mmHg 31%
    21:00 +16°C° 0 mm 1 m/S 671 mmHg 32%
    22:00 +16°C° 0 mm 2 m/S 671 mmHg 32%
    23:00 +15°C° 0 mm 2 m/S 671 mmHg 33%

    übermorgen, 27 März, Mittwoch

    Zeit Temperatur Niederschläge Wind Luftdruck Luftfeuchtigkeit
    00:00 +15°C° 0 mm 2 m/S 671 mmHg 34%
    01:00 +15°C° 0 mm 2 m/S 671 mmHg 35%
    02:00 +14°C° 0 mm 2 m/S 671 mmHg 36%
    03:00 +14°C° 0 mm 2 m/S 671 mmHg 38%
    04:00 +13°C° 0 mm 2 m/S 670 mmHg 41%
    05:00 +13°C° 0 mm 1 m/S 670 mmHg 44%
    06:00 +13°C° 0 mm 1 m/S 670 mmHg 42%
    07:00 +14°C° 0 mm 1 m/S 670 mmHg 41%
    08:00 +14°C° 0 mm 1 m/S 670 mmHg 40%
    09:00 +15°C° 0 mm 2 m/S 670 mmHg 38%
    10:00 +15°C° 0 mm 2 m/S 670 mmHg 37%
    11:00 +16°C° 0 mm 3 m/S 670 mmHg 35%
    12:00 +17°C° 0 mm 3 m/S 670 mmHg 33%
    13:00 +18°C° 0 mm 3 m/S 670 mmHg 31%
    14:00 +19°C° 0 mm 3 m/S 670 mmHg 29%
    15:00 +18°C° 0.1 mm 3 m/S 670 mmHg 31%
    16:00 +17°C° 0.1 mm 2 m/S 670 mmHg 33%
    17:00 +17°C° 0.1 mm 2 m/S 670 mmHg 35%
    18:00 +16°C° 0.5 mm 2 m/S 670 mmHg 40%
    19:00 +15°C° 0.5 mm 2 m/S 670 mmHg 46%
    20:00 +14°C° 0.5 mm 2 m/S 670 mmHg 51%
    21:00 +14°C° 0.2 mm 2 m/S 670 mmHg 53%
    22:00 +14°C° 0.2 mm 2 m/S 670 mmHg 55%
    23:00 +14°C° 0.2 mm 2 m/S 670 mmHg 56%

    28 März, Donnerstag

    Zeit Temperatur Niederschläge Wind Luftdruck Luftfeuchtigkeit
    00:00 +14°C° 0.2 mm 2 m/S 670 mmHg 60%
    01:00 +13°C° 0.2 mm 2 m/S 670 mmHg 63%
    02:00 +13°C° 0.2 mm 1 m/S 670 mmHg 67%
    03:00 +13°C° 1.1 mm 2 m/S 670 mmHg 71%
    04:00 +12°C° 1.1 mm 2 m/S 670 mmHg 75%
    05:00 +12°C° 1.1 mm 2 m/S 670 mmHg 78%
    06:00 +13°C° 1.1 mm 2 m/S 670 mmHg 75%
    07:00 +13°C° 1.1 mm 2 m/S 670 mmHg 72%
    08:00 +14°C° 1.1 mm 2 m/S 671 mmHg 69%
    09:00 +15°C° 0.1 mm 2 m/S 671 mmHg 64%
    10:00 +16°C° 0.1 mm 2 m/S 672 mmHg 60%
    11:00 +16°C° 0.1 mm 2 m/S 672 mmHg 56%
    12:00 +17°C° 0.1 mm 2 m/S 672 mmHg 56%
    13:00 +17°C° 0.1 mm 2 m/S 672 mmHg 57%
    14:00 +17°C° 0.1 mm 2 m/S 671 mmHg 57%
    15:00 +17°C° 0.1 mm 3 m/S 671 mmHg 57%
    16:00 +17°C° 0.1 mm 3 m/S 671 mmHg 58%
    17:00 +17°C° 0.1 mm 3 m/S 671 mmHg 58%
    18:00 +16°C° 0 mm 3 m/S 671 mmHg 61%
    19:00 +15°C° 0 mm 2 m/S 671 mmHg 63%
    20:00 +14°C° 0 mm 2 m/S 671 mmHg 66%
    21:00 +14°C° 0 mm 2 m/S 671 mmHg 65%
    22:00 +13°C° 0 mm 2 m/S 670 mmHg 64%
    23:00 +13°C° 0 mm 2 m/S 670 mmHg 63%

    29 März, Freitag

    Zeit Temperatur Niederschläge Wind Luftdruck Luftfeuchtigkeit
    00:00 +12°C° 0 mm 1 m/S 670 mmHg 62%
    01:00 +12°C° 0 mm 1 m/S 669 mmHg 62%
    02:00 +12°C° 0 mm 1 m/S 669 mmHg 61%
    03:00 +12°C° 0 mm 1 m/S 668 mmHg 60%
    04:00 +12°C° 0 mm 1 m/S 668 mmHg 59%
    05:00 +12°C° 0 mm 1 m/S 668 mmHg 57%
    06:00 +12°C° 0 mm 2 m/S 668 mmHg 58%
    07:00 +12°C° 0 mm 3 m/S 669 mmHg 58%
    08:00 +13°C° 0 mm 4 m/S 669 mmHg 58%
    09:00 +14°C° 0 mm 3 m/S 669 mmHg 56%
    10:00 +16°C° 0 mm 3 m/S 669 mmHg 53%
    11:00 +18°C° 0 mm 3 m/S 669 mmHg 51%
    12:00 +18°C° 0 mm 3 m/S 668 mmHg 51%
    13:00 +18°C° 0 mm 3 m/S 667 mmHg 50%
    14:00 +19°C° 0 mm 3 m/S 667 mmHg 49%
    15:00 +18°C° 0 mm 3 m/S 667 mmHg 51%
    16:00 +18°C° 0 mm 2 m/S 666 mmHg 53%
    17:00 +17°C° 0 mm 2 m/S 666 mmHg 55%
    18:00 +17°C° 0 mm 2 m/S 666 mmHg 59%
    19:00 +16°C° 0 mm 2 m/S 666 mmHg 62%
    20:00 +16°C° 0 mm 2 m/S 667 mmHg 66%
    21:00 +15°C° 0 mm 2 m/S 666 mmHg 67%
    22:00 +15°C° 0 mm 2 m/S 666 mmHg 68%
    23:00 +14°C° 0 mm 2 m/S 666 mmHg 69%

    30 März, Samstag

    Zeit Temperatur Niederschläge Wind Luftdruck Luftfeuchtigkeit
    00:00 +14°C° 0 mm 2 m/S 666 mmHg 70%
    01:00 +12°C° 0 mm 3 m/S 666 mmHg 72%
    02:00 +12°C° 0 mm 3 m/S 666 mmHg 73%
    03:00 +12°C° 0.1 mm 4 m/S 666 mmHg 74%
    04:00 +11°C° 0.1 mm 4 m/S 666 mmHg 75%
    05:00 +10°C° 0.1 mm 5 m/S 667 mmHg 76%
    06:00 +10°C° 0.2 mm 5 m/S 668 mmHg 75%
    07:00 +10°C° 0.2 mm 6 m/S 668 mmHg 74%
    08:00 +10°C° 0.2 mm 6 m/S 669 mmHg 73%
    09:00 +10°C° 0 mm 6 m/S 670 mmHg 71%
    10:00 +10°C° 0 mm 6 m/S 671 mmHg 70%
    11:00 +11°C° 0 mm 6 m/S 671 mmHg 69%
    12:00 +11°C° 0 mm 6 m/S 671 mmHg 67%
    13:00 +11°C° 0 mm 6 m/S 671 mmHg 65%
    14:00 +13°C° 0 mm 6 m/S 672 mmHg 63%
    15:00 +11°C° 0 mm 6 m/S 672 mmHg 64%
    16:00 +12°C° 0 mm 5 m/S 672 mmHg 64%
    17:00 +12°C° 0 mm 5 m/S 672 mmHg 64%
    18:00 +12°C° 0.1 mm 4 m/S 673 mmHg 66%
    19:00 +11°C° 0.1 mm 4 m/S 673 mmHg 67%
    20:00 +11°C° 0.1 mm 3 m/S 673 mmHg 69%
    21:00 +10°C° 0 mm 2 m/S 674 mmHg 70%
    22:00 +10°C° 0 mm 2 m/S 674 mmHg 70%
    23:00 +11°C° 0 mm 1 m/S 674 mmHg 71%
    Mehr zeigen